| time (UTC) | temp F | wind direction | speed MPH | gust MPH | rain 1hr in | rain 24hr in | rain mn in | humidity % | barometer mb |
| 20260508082334 | 81 | 270 | 1.0 | 3.0 | 0.00 | 0.00 | 0.00 | 91 | 1015.8 |
| 20260508081350 | 81 | 260 | 0.0 | 3.0 | 0.00 | 0.00 | 0.00 | 91 | 1015.8 |
| 20260508080359 | 81 | 310 | 1.0 | 3.0 | 0.00 | 0.00 | 0.00 | 91 | 1015.9 |
| 20260508075320 | 81 | 307 | 1.0 | 5.0 | 0.00 | 0.00 | 0.00 | 91 | 1015.8 |
| 20260508074336 | 81 | 290 | 1.0 | 3.0 | 0.00 | 0.00 | 0.00 | 91 | 1016.0 |
| 20260508073329 | 81 | 275 | 1.0 | 4.0 | 0.00 | 0.00 | 0.00 | 91 | 1015.9 |
| 20260508072330 | 81 | 280 | 1.0 | 5.0 | 0.00 | 0.00 | 0.00 | 90 | 1015.9 |
| 20260508071346 | 81 | 300 | 2.0 | 3.0 | 0.00 | 0.00 | 0.00 | 90 | 1016.0 |
| 20260508070332 | 81 | 290 | 2.0 | 4.0 | 0.00 | 0.00 | 0.00 | 89 | 1016.1 |
| 20260508065318 | 81 | 292 | 1.0 | 3.0 | 0.00 | 0.00 | 0.00 | 88 | 1016.1 |
| 20260508064334 | 81 | 305 | 0.0 | 1.0 | 0.00 | 0.00 | 0.00 | 84 | 1016.2 |
| 20260508063329 | 81 | 132 | 0.0 | 0.0 | 0.00 | 0.00 | 0.00 | 83 | 1016.2 |
| 20260508062325 | 81 | 132 | 0.0 | 1.0 | 0.00 | 0.00 | 0.00 | 83 | 1016.4 |
| 20260508061324 | 81 | 168 | 0.0 | 0.0 | 0.00 | 0.00 | 0.00 | 84 | 1016.6 |
| 20260508060330 | 81 | 156 | 0.0 | 0.0 | 0.00 | 0.00 | 0.00 | 83 | 1016.6 |
| 20260508055332 | 81 | 156 | 0.0 | 0.0 | 0.00 | 0.00 | 0.00 | 83 | 1016.6 |
| 20260508054333 | 81 | 156 | 0.0 | 0.0 | 0.00 | 0.00 | 0.00 | 83 | 1016.6 |
| 20260508053328 | 81 | 156 | 0.0 | 0.0 | 0.00 | 0.00 | 0.00 | 82 | 1016.7 |
| 20260508052325 | 81 | 156 | 0.0 | 0.0 | 0.00 | 0.00 | 0.00 | 82 | 1016.7 |
| 20260508051340 | 81 | 156 | 0.0 | 0.0 | 0.00 | 0.00 | 0.00 | 83 | 1016.9 |
| 20260508050349 | 81 | 156 | 0.0 | 0.0 | 0.00 | 0.00 | 0.00 | 81 | 1016.9 |
| 20260508045351 | 81 | 156 | 0.0 | 0.0 | 0.00 | 0.00 | 0.00 | 82 | 1017.0 |
| 20260508044325 | 81 | 156 | 0.0 | 0.0 | 0.00 | 0.00 | 0.00 | 83 | 1017.1 |
| 20260508043324 | 81 | 156 | 0.0 | 0.0 | 0.00 | 0.00 | 0.00 | 84 | 1017.2 |
| 20260508042341 | 81 | 156 | 0.0 | 1.0 | 0.00 | 0.00 | 0.00 | 86 | 1017.2 |
| 20260508041335 | 81 | 156 | 0.0 | 0.0 | 0.00 | 0.00 | 0.00 | 85 | 1017.3 |
| 20260508040342 | 81 | 156 | 0.0 | 0.0 | 0.00 | 0.00 | 0.00 | 85 | 1017.2 |
| 20260508035328 | 81 | 156 | 0.0 | 1.0 | 0.00 | 0.00 | 0.00 | 85 | 1017.2 |
| 20260508034322 | 82 | 156 | 0.0 | 0.0 | 0.00 | 0.00 | 0.00 | 86 | 1017.2 |
| 20260508033318 | 82 | 156 | 0.0 | 0.0 | 0.00 | 0.00 | 0.00 | 85 | 1017.2 |
| 20260508032354 | 82 | 156 | 0.0 | 1.0 | 0.00 | 0.00 | 0.00 | 86 | 1017.2 |
| 20260508031332 | 82 | 163 | 0.0 | 1.0 | 0.00 | 0.00 | 0.00 | 86 | 1017.1 |
| 20260508030339 | 82 | 172 | 1.0 | 5.0 | 0.00 | 0.00 | 0.00 | 86 | 1017.1 |
| 20260508025323 | 82 | 160 | 2.0 | 4.0 | 0.00 | 0.00 | 0.00 | 86 | 1017.1 |
| 20260508024322 | 82 | 191 | 2.0 | 6.0 | 0.00 | 0.00 | 0.00 | 87 | 1016.9 |
| 20260508023317 | 82 | 166 | 4.0 | 8.0 | 0.00 | 0.00 | 0.00 | 88 | 1016.8 |
| 20260508022334 | 82 | 197 | 2.0 | 6.0 | 0.00 | 0.00 | 0.00 | 88 | 1016.8 |
| 20260508021329 | 82 | 195 | 3.0 | 5.0 | 0.00 | 0.00 | 0.00 | 88 | 1016.7 |
| 20260508020340 | 82 | 122 | 2.0 | 4.0 | 0.00 | 0.00 | 0.00 | 87 | 1016.6 |
| 20260508015322 | 83 | 190 | 1.0 | 6.0 | 0.00 | 0.00 | 0.00 | 86 | 1016.6 |
| 20260508014317 | 83 | 201 | 3.0 | 8.0 | 0.00 | 0.00 | 0.00 | 86 | 1016.6 |
| 20260508013357 | 83 | 190 | 2.0 | 5.0 | 0.00 | 0.00 | 0.00 | 85 | 1016.5 |
| 20260508012332 | 83 | 184 | 3.0 | 5.0 | 0.00 | 0.00 | 0.00 | 85 | 1016.4 |
| 20260508011347 | 83 | 193 | 3.0 | 6.0 | 0.00 | 0.00 | 0.00 | 84 | 1016.5 |
| 20260508010332 | 83 | 194 | 4.0 | 9.0 | 0.00 | 0.00 | 0.00 | 83 | 1016.4 |
| 20260508005320 | 84 | 190 | 4.0 | 7.0 | 0.00 | 0.00 | 0.00 | 82 | 1016.3 |
| 20260508004335 | 84 | 225 | 4.0 | 6.0 | 0.00 | 0.00 | 0.00 | 82 | 1016.3 |
| 20260508003331 | 84 | 130 | 4.0 | 8.0 | 0.00 | 0.00 | 0.00 | 82 | 1016.2 |
| 20260508002331 | 84 | 172 | 3.0 | 7.0 | 0.00 | 0.00 | 0.00 | 81 | 1016.2 |
| 20260508001327 | 84 | 128 | 4.0 | 8.0 | 0.00 | 0.00 | 0.00 | 81 | 1016.1 |
| 20260508000335 | 85 | 173 | 4.0 | 9.0 | 0.00 | 0.00 | 0.00 | 79 | 1016.1 |
| 20260507235336 | 85 | 151 | 5.0 | 10.0 | 0.00 | 0.00 | 0.00 | 77 | 1016.1 |
| 20260507234356 | 86 | 171 | 2.0 | 8.0 | 0.00 | 0.00 | 0.00 | 77 | 1016.1 |
| 20260507233330 | 86 | 171 | 3.0 | 6.0 | 0.00 | 0.00 | 0.00 | 76 | 1016.1 |
| 20260507232346 | 86 | 100 | 3.0 | 5.0 | 0.00 | 0.00 | 0.00 | 78 | 1016.1 |
| 20260507231322 | 86 | 103 | 0.0 | 1.0 | 0.00 | 0.00 | 0.00 | 81 | 1016.2 |
| 20260507230333 | 86 | 236 | 1.0 | 3.0 | 0.00 | 0.00 | 0.00 | 81 | 1016.0 |
| 20260507225334 | 85 | 291 | 1.0 | 4.0 | 0.00 | 0.00 | 0.00 | 82 | 1016.0 |
| 20260507224330 | 85 | 259 | 2.0 | 7.0 | 0.00 | 0.00 | 0.00 | 80 | 1016.0 |
| 20260507223349 | 87 | 239 | 2.0 | 7.0 | 0.00 | 0.00 | 0.00 | 78 | 1016.1 |
| 20260507222344 | 87 | 304 | 1.0 | 4.0 | 0.00 | 0.00 | 0.00 | 77 | 1016.2 |
| 20260507221318 | 87 | 302 | 0.0 | 5.0 | 0.00 | 0.00 | 0.00 | 78 | 1016.2 |
| 20260507220345 | 87 | 255 | 1.0 | 5.0 | 0.00 | 0.00 | 0.00 | 77 | 1016.1 |
| 20260507215331 | 87 | 282 | 0.0 | 4.0 | 0.00 | 0.00 | 0.00 | 78 | 1016.1 |
| 20260507214325 | 87 | 229 | 1.0 | 5.0 | 0.00 | 0.00 | 0.00 | 78 | 1016.1 |
| 20260507213321 | 87 | 332 | 2.0 | 9.0 | 0.00 | 0.00 | 0.00 | 77 | 1016.1 |
| 20260507212321 | 87 | 358 | 3.0 | 7.0 | 0.00 | 0.00 | 0.00 | 77 | 1016.1 |
| 20260507211336 | 87 | 282 | 5.0 | 10.0 | 0.00 | 0.00 | 0.00 | 79 | 1016.1 |
| 20260507210342 | 87 | 285 | 3.0 | 10.0 | 0.00 | 0.00 | 0.00 | 79 | 1016.3 |
| 20260507205324 | 88 | 298 | 5.0 | 8.0 | 0.00 | 0.00 | 0.00 | 78 | 1016.2 |
| 20260507204323 | 88 | 295 | 4.0 | 9.0 | 0.00 | 0.00 | 0.00 | 76 | 1016.4 |
| 20260507203319 | 88 | 280 | 1.0 | 7.0 | 0.00 | 0.00 | 0.00 | 76 | 1016.4 |
| 20260507202335 | 87 | 276 | 4.0 | 8.0 | 0.00 | 0.00 | 0.00 | 77 | 1016.5 |
| 20260507201330 | 89 | 17 | 0.0 | 5.0 | 0.00 | 0.00 | 0.00 | 75 | 1016.5 |
| 20260507200342 | 88 | 226 | 0.0 | 7.0 | 0.00 | 0.00 | 0.00 | 77 | 1016.5 |
| 20260507195324 | 88 | 270 | 2.0 | 7.0 | 0.00 | 0.00 | 0.00 | 77 | 1016.6 |
| 20260507194341 | 87 | 259 | 3.0 | 9.0 | 0.00 | 0.00 | 0.00 | 78 | 1016.7 |
| 20260507193320 | 88 | 349 | 2.0 | 7.0 | 0.00 | 0.00 | 0.00 | 78 | 1016.8 |
| 20260507192337 | 88 | 323 | 2.0 | 7.0 | 0.00 | 0.00 | 0.00 | 78 | 1016.8 |
| 20260507191332 | 87 | 18 | 2.0 | 9.0 | 0.00 | 0.00 | 0.00 | 80 | 1016.9 |
| 20260507190339 | 87 | 292 | 4.0 | 8.0 | 0.00 | 0.00 | 0.00 | 79 | 1017.1 |
| 20260507185345 | 86 | 308 | 6.0 | 10.0 | 0.00 | 0.00 | 0.00 | 80 | 1017.2 |
| 20260507184319 | 86 | 263 | 4.0 | 10.0 | 0.00 | 0.00 | 0.00 | 82 | 1017.3 |
| 20260507183335 | 86 | 268 | 5.0 | 9.0 | 0.00 | 0.00 | 0.00 | 80 | 1017.4 |
| 20260507182330 | 87 | 279 | 3.0 | 9.0 | 0.00 | 0.00 | 0.00 | 80 | 1017.4 |
| 20260507181329 | 86 | 284 | 6.0 | 10.0 | 0.00 | 0.00 | 0.00 | 80 | 1017.5 |
| 20260507180355 | 86 | 253 | 5.0 | 11.0 | 0.00 | 0.00 | 0.00 | 81 | 1017.7 |
| 20260507175317 | 87 | 309 | 5.0 | 12.0 | 0.00 | 0.00 | 0.00 | 80 | 1017.7 |
| 20260507174332 | 87 | 287 | 3.0 | 9.0 | 0.00 | 0.00 | 0.00 | 80 | 1017.9 |
| 20260507173332 | 87 | 326 | 4.0 | 10.0 | 0.00 | 0.00 | 0.00 | 80 | 1018.1 |
| 20260507172329 | 86 | 312 | 5.0 | 9.0 | 0.00 | 0.00 | 0.00 | 80 | 1018.2 |
| 20260507171324 | 87 | 246 | 4.0 | 9.0 | 0.00 | 0.00 | 0.00 | 81 | 1018.3 |
| 20260507170334 | 87 | 268 | 5.0 | 9.0 | 0.00 | 0.00 | 0.00 | 80 | 1018.4 |
| 20260507165336 | 87 | 262 | 3.0 | 8.0 | 0.00 | 0.00 | 0.00 | 80 | 1018.4 |
| 20260507164332 | 87 | 255 | 4.0 | 8.0 | 0.00 | 0.00 | 0.00 | 79 | 1018.5 |
| 20260507163331 | 86 | 222 | 4.0 | 9.0 | 0.00 | 0.00 | 0.00 | 80 | 1018.6 |
| 20260507162328 | 85 | 359 | 3.0 | 9.0 | 0.00 | 0.00 | 0.00 | 81 | 1018.8 |
| 20260507161324 | 86 | 238 | 4.0 | 8.0 | 0.00 | 0.00 | 0.00 | 82 | 1018.8 |
| 20260507160350 | 86 | 243 | 6.0 | 9.0 | 0.00 | 0.00 | 0.00 | 82 | 1018.8 |
| 20260507155336 | 86 | 352 | 2.0 | 8.0 | 0.00 | 0.00 | 0.00 | 83 | 1018.8 |
| 20260507154330 | 85 | 318 | 3.0 | 8.0 | 0.00 | 0.00 | 0.00 | 82 | 1018.8 |
| 20260507153326 | 85 | 280 | 3.0 | 8.0 | 0.00 | 0.00 | 0.00 | 84 | 1018.8 |
| 20260507152343 | 86 | 258 | 4.0 | 9.0 | 0.00 | 0.00 | 0.00 | 81 | 1018.8 |
| 20260507151322 | 86 | 322 | 3.0 | 7.0 | 0.00 | 0.00 | 0.00 | 82 | 1019.0 |
| 20260507150347 | 85 | 287 | 4.0 | 8.0 | 0.00 | 0.00 | 0.00 | 82 | 1019.0 |
| 20260507145330 | 85 | 309 | 4.0 | 9.0 | 0.00 | 0.00 | 0.00 | 83 | 1018.9 |
| 20260507144329 | 85 | 255 | 3.0 | 8.0 | 0.00 | 0.00 | 0.00 | 82 | 1018.9 |
| 20260507143325 | 85 | 315 | 4.0 | 8.0 | 0.00 | 0.00 | 0.00 | 82 | 1018.7 |
| 20260507142322 | 85 | 275 | 4.0 | 8.0 | 0.00 | 0.00 | 0.00 | 82 | 1018.6 |
| 20260507141321 | 85 | 269 | 4.0 | 8.0 | 0.00 | 0.00 | 0.00 | 83 | 1018.7 |
| 20260507140347 | 85 | 263 | 4.0 | 8.0 | 0.00 | 0.00 | 0.00 | 83 | 1018.7 |
| 20260507135331 | 85 | 274 | 2.0 | 9.0 | 0.00 | 0.00 | 0.00 | 81 | 1018.7 |
| 20260507134326 | 85 | 360 | 1.0 | 8.0 | 0.00 | 0.00 | 0.00 | 81 | 1018.6 |
| 20260507133326 | 85 | 247 | 4.0 | 6.0 | 0.00 | 0.00 | 0.00 | 82 | 1018.5 |
| 20260507132322 | 85 | 268 | 4.0 | 8.0 | 0.00 | 0.00 | 0.00 | 82 | 1018.4 |
| 20260507131318 | 85 | 300 | 0.0 | 7.0 | 0.00 | 0.00 | 0.00 | 82 | 1018.4 |
| 20260507130404 | 84 | 293 | 2.0 | 7.0 | 0.00 | 0.00 | 0.00 | 83 | 1018.2 |
| 20260507125330 | 84 | 283 | 3.0 | 8.0 | 0.00 | 0.00 | 0.00 | 83 | 1018.2 |
| 20260507124326 | 84 | 295 | 2.0 | 8.0 | 0.00 | 0.00 | 0.00 | 84 | 1018.1 |
| 20260507123343 | 83 | 350 | 3.0 | 7.0 | 0.00 | 0.00 | 0.00 | 85 | 1018.2 |
| 20260507122322 | 83 | 295 | 4.0 | 6.0 | 0.00 | 0.00 | 0.00 | 85 | 1018.0 |
| 20260507121317 | 83 | 288 | 4.0 | 7.0 | 0.00 | 0.00 | 0.00 | 84 | 1018.0 |
| 20260507120344 | 83 | 298 | 2.0 | 8.0 | 0.00 | 0.00 | 0.00 | 86 | 1018.0 |
| 20260507115346 | 82 | 273 | 0.0 | 5.0 | 0.00 | 0.00 | 0.00 | 87 | 1018.0 |
| 20260507114325 | 82 | 299 | 2.0 | 6.0 | 0.00 | 0.00 | 0.00 | 87 | 1018.0 |
| 20260507113321 | 81 | 288 | 2.0 | 8.0 | 0.00 | 0.00 | 0.00 | 88 | 1017.8 |
| 20260507112318 | 80 | 264 | 2.0 | 8.0 | 0.00 | 0.00 | 0.00 | 88 | 1017.4 |
| 20260507111317 | 80 | 276 | 5.0 | 9.0 | 0.00 | 0.00 | 0.00 | 88 | 1017.4 |
| 20260507110344 | 80 | 330 | 3.0 | 10.0 | 0.00 | 0.00 | 0.00 | 88 | 1017.3 |
| 20260507105326 | 80 | 250 | 4.0 | 9.0 | 0.00 | 0.00 | 0.00 | 88 | 1017.2 |
| 20260507104322 | 80 | 300 | 5.0 | 9.0 | 0.00 | 0.00 | 0.00 | 88 | 1017.0 |
| 20260507103321 | 80 | 324 | 5.0 | 10.0 | 0.00 | 0.00 | 0.00 | 88 | 1017.0 |
| 20260507102318 | 80 | 323 | 4.0 | 11.0 | 0.00 | 0.00 | 0.00 | 88 | 1016.8 |
| 20260507101333 | 80 | 247 | 4.0 | 12.0 | 0.00 | 0.00 | 0.00 | 88 | 1016.6 |
| 20260507100343 | 80 | 270 | 5.0 | 10.0 | 0.00 | 0.00 | 0.00 | 87 | 1016.6 |
| 20260507095326 | 80 | 263 | 7.0 | 12.0 | 0.00 | 0.00 | 0.00 | 87 | 1016.6 |
| 20260507094322 | 80 | 274 | 4.0 | 12.0 | 0.00 | 0.00 | 0.00 | 87 | 1016.6 |
| 20260507093338 | 80 | 271 | 6.0 | 11.0 | 0.00 | 0.00 | 0.00 | 87 | 1016.4 |
| 20260507092336 | 80 | 275 | 6.0 | 13.0 | 0.00 | 0.00 | 0.00 | 87 | 1016.3 |
| 20260507091331 | 80 | 265 | 5.0 | 11.0 | 0.00 | 0.00 | 0.00 | 87 | 1016.4 |
| 20260507090357 | 80 | 263 | 4.0 | 11.0 | 0.00 | 0.00 | 0.00 | 87 | 1016.3 |
| 20260507085319 | 80 | 262 | 8.0 | 13.0 | 0.00 | 0.00 | 0.00 | 86 | 1016.3 |
| 20260507084317 | 80 | 265 | 8.0 | 14.0 | 0.00 | 0.00 | 0.00 | 86 | 1016.2 |
| 20260507083332 | 80 | 253 | 5.0 | 13.0 | 0.00 | 0.00 | 0.00 | 86 | 1016.3 |